Warsaw, IN

8:30 AM EST on January 25, 2020 (GMT -0500)
Warsaw Municipal

Weather History for KASW - December, 2019

Change the Weather History Date:

Tuesday, December 10, 2019

  Actual Average Record
Temperature  
Mean Temperature 24 °F -  
Max Temperature 30 °F 36 °F 61 °F (1952)
Min Temperature 17 °F 24 °F -8 °F (1958)
Degree Days  
Heating Degree Days 42    
Moisture  
Dew Point 15 °F    
Average Humidity 72    
Maximum Humidity 86    
Minimum Humidity 58    
Precipitation  
Precipitation 0.00 in - - ()
Sea Level Pressure  
Sea Level Pressure 30.09 in    
Wind  
Wind Speed 13 mph ()    
Max Wind Speed 20 mph    
Max Gust Speed 28 mph    
Visibility 9.9 miles    
Events Snow    
Averages and records for this station are not official NWS values.
T = Trace of Precipitation, MM = Missing Value Source: Averaged Metar Reports

Daily Weather History Graph

Daily Weather History Graph

Search for Another Location

Airport or City:

Astronomy

Dec. 10, 2019 Rise Set
Actual Time 7:57 AM EST 5:14 PM EST
Civil Twilight 7:26 AM EST 5:45 PM EST
Nautical Twilight 6:52 AM EST 6:19 PM EST
Astronomical Twilight 6:18 AM EST 6:53 PM EST
Moon 4:25 PM EST (12/10) 6:07 AM EST (12/10)
Length of Visible Light 10h 18m
Length of Day
9h 16m
Waxing Gibbous, 97% of the Moon is Illuminated
Dec 10
Waxing Gibbous
Dec 12
Full
Dec 18
Last Quarter
Dec 26
New
Jan 2
First Quarter

Hourly Weather History & Observations

Time (EST) Temp. Windchill Dew Point Humidity Pressure Visibility Wind Dir Wind Speed Gust Speed Precip Events Conditions
12:15 AM 30.2 °F 17.8 °F 26.6 °F 86% 29.77 in 10.0 mi West 19.6 mph 27.6 mph N/A   Overcast
12:35 AM 30.2 °F 18.9 °F 26.6 °F 86% 29.77 in 10.0 mi West 16.1 mph 21.9 mph N/A   Overcast
12:55 AM 30.2 °F 19.3 °F 26.6 °F 86% 29.78 in 10.0 mi West 15.0 mph 25.3 mph N/A   Overcast
1:35 AM 28.4 °F 16.2 °F 24.8 °F 86% 29.79 in 10.0 mi West 17.3 mph 24.2 mph N/A   Overcast
1:55 AM 28.4 °F 16.2 °F 23.0 °F 80% 29.80 in 10.0 mi West 17.3 mph 23.0 mph N/A   Overcast
2:15 AM 28.4 °F 16.6 °F 23.0 °F 80% 29.81 in 10.0 mi West 16.1 mph 21.9 mph N/A   Overcast
2:35 AM 28.4 °F 16.6 °F 23.0 °F 80% 29.83 in 10.0 mi West 16.1 mph 23.0 mph N/A   Overcast
2:55 AM 26.6 °F 13.8 °F 21.2 °F 80% 29.84 in 10.0 mi West 17.3 mph 23.0 mph N/A   Overcast
3:15 AM 26.6 °F 13.1 °F 21.2 °F 80% 29.85 in 10.0 mi West 19.6 mph 23.0 mph N/A   Overcast
3:55 AM 26.6 °F 15.2 °F 21.2 °F 80% 29.87 in 10.0 mi West 13.8 mph 23.0 mph N/A   Overcast
4:15 AM 26.6 °F 14.3 °F 21.2 °F 80% 29.87 in 10.0 mi West 16.1 mph - N/A   Overcast
4:35 AM 26.6 °F 13.1 °F 21.2 °F 80% 29.89 in 10.0 mi West 19.6 mph 25.3 mph N/A   Overcast
5:35 AM 24.8 °F 11.9 °F 19.4 °F 80% 29.91 in 10.0 mi West 16.1 mph 25.3 mph N/A   Overcast
5:55 AM 23.0 °F 9.6 °F 19.4 °F 86% 29.92 in 10.0 mi West 16.1 mph 25.3 mph N/A   Overcast
6:15 AM 23.0 °F 9.6 °F 19.4 °F 86% 29.93 in 10.0 mi West 16.1 mph - N/A   Overcast
6:55 AM 23.0 °F 9.6 °F 17.6 °F 80% 29.95 in 10.0 mi West 16.1 mph 20.7 mph N/A   Overcast
7:15 AM 23.0 °F 9.6 °F 17.6 °F 80% 29.97 in 10.0 mi West 16.1 mph 24.2 mph N/A   Overcast
7:55 AM 23.0 °F 10.1 °F 17.6 °F 80% 29.99 in 10.0 mi West 15.0 mph 23.0 mph N/A   Overcast
8:15 AM 23.0 °F 9.2 °F 17.6 °F 80% 30.00 in 10.0 mi West 17.3 mph 23.0 mph N/A   Overcast
8:35 AM 23.0 °F 8.7 °F 17.6 °F 80% 30.01 in 10.0 mi West 18.4 mph 23.0 mph N/A   Overcast
9:15 AM 21.2 °F 8.3 °F 17.6 °F 86% 30.05 in 10.0 mi West 13.8 mph 19.6 mph N/A   Overcast
9:35 AM 21.2 °F 8.3 °F 15.8 °F 80% 30.07 in 10.0 mi West 13.8 mph - N/A Snow Light Snow
9:55 AM 23.0 °F 9.2 °F 17.6 °F 80% 30.07 in 7.0 mi West 17.3 mph 21.9 mph N/A Snow Light Snow
10:15 AM 23.0 °F 9.6 °F 15.8 °F 74% 30.09 in 10.0 mi West 16.1 mph 19.6 mph N/A Snow Light Snow
10:35 AM 23.0 °F 11.1 °F 15.8 °F 74% 30.11 in 10.0 mi West 12.7 mph 18.4 mph N/A Snow Light Snow
10:55 AM 23.0 °F 10.1 °F 17.6 °F 80% 30.11 in 10.0 mi West 15.0 mph 18.4 mph N/A   Overcast
11:55 AM 24.8 °F 12.9 °F 15.8 °F 69% 30.12 in 10.0 mi WSW 13.8 mph 19.6 mph N/A   Mostly Cloudy
12:15 PM 24.8 °F 12.9 °F 15.8 °F 69% 30.12 in 10.0 mi West 13.8 mph 17.3 mph N/A   Mostly Cloudy
12:35 PM 23.0 °F 10.1 °F 14.0 °F 68% 30.14 in 10.0 mi West 15.0 mph - N/A   Overcast
12:55 PM 23.0 °F 13.1 °F 14.0 °F 68% 30.15 in 10.0 mi WSW 9.2 mph - N/A   Overcast
1:35 PM 23.0 °F 10.1 °F 14.0 °F 68% 30.13 in 10.0 mi West 15.0 mph - N/A Snow Light Snow
1:55 PM 23.0 °F 10.6 °F 14.0 °F 68% 30.14 in 7.0 mi WNW 13.8 mph - N/A Snow Light Snow
2:15 PM 24.8 °F 12.9 °F 12.2 °F 59% 30.14 in 10.0 mi West 13.8 mph - N/A   Overcast
2:35 PM 23.0 °F 9.6 °F 12.2 °F 63% 30.15 in 10.0 mi West 16.1 mph 19.6 mph N/A   Scattered Clouds
2:55 PM 24.8 °F 12.9 °F 12.2 °F 59% 30.14 in 10.0 mi NW 13.8 mph 18.4 mph N/A   Mostly Cloudy
3:35 PM 23.0 °F 12.4 °F 10.4 °F 59% 30.17 in 10.0 mi NW 10.4 mph 17.3 mph N/A   Scattered Clouds
3:55 PM 23.0 °F 10.6 °F 10.4 °F 59% 30.17 in 10.0 mi WNW 13.8 mph - N/A   Scattered Clouds
4:15 PM 23.0 °F 12.4 °F 10.4 °F 59% 30.19 in 10.0 mi WNW 10.4 mph - N/A   Clear
4:55 PM 21.2 °F 10.1 °F 8.6 °F 58% 30.21 in 10.0 mi West 10.4 mph - N/A   Clear
5:15 PM 21.2 °F 10.9 °F 8.6 °F 58% 30.22 in 10.0 mi West 9.2 mph - N/A   Clear
6:30 PM 19.4 °F 10.4 °F 8.6 °F 63% 30.26 in 10.0 mi West 6.9 mph - N/A   Clear
6:55 PM 19.4 °F 11.5 °F 8.6 °F 63% 30.27 in 10.0 mi WSW 5.8 mph - N/A   Clear
7:15 PM 19.4 °F 10.4 °F 8.6 °F 63% 30.28 in 10.0 mi WSW 6.9 mph - N/A   Clear
7:35 PM 17.6 °F 10.7 °F 8.6 °F 68% 30.28 in 10.0 mi West 4.6 mph - N/A   Clear
7:55 PM 17.6 °F 8.2 °F 8.6 °F 68% 30.28 in 10.0 mi West 6.9 mph - N/A   Clear
8:15 PM 17.6 °F 9.3 °F 8.6 °F 68% 30.29 in 10.0 mi WSW 5.8 mph - N/A   Clear
8:35 PM 17.6 °F 10.7 °F 8.6 °F 68% 30.29 in 10.0 mi WSW 4.6 mph - N/A   Clear
8:55 PM 17.6 °F 10.7 °F 8.6 °F 68% 30.29 in 10.0 mi WSW 4.6 mph - N/A   Clear
9:15 PM 17.6 °F 8.2 °F 8.6 °F 68% 30.29 in 10.0 mi West 6.9 mph - N/A   Clear
9:35 PM 17.6 °F 8.2 °F 8.6 °F 68% 30.30 in 10.0 mi West 6.9 mph - N/A   Clear
9:55 PM 17.6 °F 9.3 °F 8.6 °F 68% 30.30 in 10.0 mi WSW 5.8 mph - N/A   Clear
10:15 PM 17.6 °F 9.3 °F 8.6 °F 68% 30.30 in 10.0 mi WSW 5.8 mph - N/A   Clear
10:55 PM 17.6 °F 10.7 °F 8.6 °F 68% 30.29 in 10.0 mi WSW 4.6 mph - N/A   Clear
11:15 PM 17.6 °F 8.2 °F 8.6 °F 68% 30.29 in 10.0 mi West 6.9 mph - N/A   Clear
11:35 PM 17.6 °F 10.7 °F 6.8 °F 63% 30.29 in 10.0 mi WSW 4.6 mph - N/A   Clear
11:55 PM 17.6 °F 10.7 °F 6.8 °F 63% 30.29 in 10.0 mi WSW 4.6 mph - N/A   Clear